Regional Weather Roundup
Issued by NWS Upton, NY

Current Version | Previous Version | Graphics & Text | Print | Product List | Glossary Off
Versions: 1 2 3 4 5 6 7 8 9 10 11 12 13 14 15 16 17 18 19 20 21 22 23 24 25

000
ASUS41 KOKX 281308
RWROKX

REGIONAL WEATHER ROUNDUP
NATIONAL WEATHER SERVICE NEW YORK NY
900 AM EDT WED JUN 28 2017

NOTE: "FAIR" INDICATES FEW OR NO CLOUDS BELOW 12,000 FEET WITH NO
SIGNIFICANT WEATHER AND/OR OBSTRUCTIONS TO VISIBILITY.

NYZ071-072-176-178-NJZ106-104-281400-
NEW YORK CITY METRO AREA

CITY           SKY/WX    TMP DP  RH WIND       PRES   REMARKS
Central Park   SUNNY     65  50  58 VRB7      30.15R
Bronx Bot Gard   N/A     66  50  55 NW6       30.12S
LaGuardia APRT SUNNY     68  54  60 NW13      30.11R
Kennedy INTL   MOSUNNY   70  53  54 N10       30.12R
Breezy Point     N/A     64 N/A N/A W9G15       N/A
Newark/Liberty MOSUNNY   68  51  54 NW6       30.13R
Teterboro      SUNNY     67  52  58 NW9       30.12R
$$

NYZ177-179-078>081-281400-
LONG ISLAND NEW YORK

CITY           SKY/WX    TMP DP  RH WIND       PRES   REMARKS
Jones Beach      N/A     66 N/A N/A NW10        N/A
Matinecock PT  NOT AVBL
Farmingdale    NOT AVBL
MacArthur/ISP  MOSUNNY   67  54  63 N10       30.10R
Shirley        SUNNY     67  55  65 NW10      30.10R
Mt Sinai Harb    N/A    N/A N/A N/A NW6         N/A
Westhampton    SUNNY     67  52  58 N12       30.11R
East Hampton   FAIR      66  52  60 N10       30.08R
Montauk          N/A     67  54  63 NW7       30.09R
$$

NYZ052-065-067-281400-
HUDSON VALLEY

CITY           SKY/WX    TMP DP  RH WIND       PRES   REMARKS
White Plains   SUNNY     65  52  62 NW8       30.11R
Larchmont Harb   N/A     63 N/A N/A W9          N/A
Croton O-T Hud   N/A     64 N/A N/A W1          N/A
Newburgh       SUNNY     63  55  77 W12       30.13R
Montgomery     SUNNY     65  52  62 W9        30.11R
Poughkeepsie   SUNNY     65  52  62 SW7       30.10R
Albany         MOSUNNY   65  53  65 W8        30.08R
$$

NJZ001-105-106-008-010-013-015-019>022-104-281400-
NEW JERSEY

CITY           SKY/WX    TMP DP  RH WIND       PRES   REMARKS
Newark/Liberty MOSUNNY   68  51  54 NW6       30.13R
Teterboro      SUNNY     67  52  58 NW9       30.12R
Caldwell       SUNNY     67  51  56 VRB3      30.14R
Somerville     SUNNY     66  54  65 NW7       30.13R
Linden         FAIR      67  51  56 NW7       30.14R
Perth Amboy      N/A     64 N/A N/A NW8         N/A
Sussex         SUNNY     63  54  72 S3        30.13S
Andover          N/A     63  54  72 CALM      30.14S
Trenton        SUNNY     66  54  65 VRB7      30.15R
Millville      SUNNY     70  54  56 N8        30.17R
Atlantic City  SUNNY     70  54  56 NW8       30.15R
Wrightstown    SUNNY     68  53  60 NW10      30.12R
Toms River     SUNNY     68  52  56 N8        30.15R
Belmar         SUNNY     67  52  58 NW10      30.15R
$$

PAZ047>061-062-071-281400-
EASTERN PENNSYLVANIA

CITY           SKY/WX    TMP DP  RH WIND       PRES   REMARKS
Philadelphia   MOSUNNY   69  48  47 NW12G22   30.17R
Allentown      SUNNY     65  52  62 W6        30.16R
Scranton       MOSUNNY   62  51  67 W8        30.15R
$$

CTZ002-004>006-009-010-012-RIZ004-006-007-MAZ004-011-015-281400-
SOUTHERN NEW ENGLAND
 IN CT

CITY           SKY/WX    TMP DP  RH WIND       PRES   REMARKS
Bradley INTL   MOSUNNY   66  53  63 NW7       30.08R
Hartford       SUNNY     66  53  63 NW8       30.08S
Danbury        NOT AVBL
Wtrbury/Oxford SUNNY     63  50  63 W5        30.11R
Bridgeport     SUNNY     69  52  54 NW9       30.10R
Meriden        SUNNY     65  53  65 W7        30.09R
New Haven      SUNNY     66  53  63 W6        30.09R
Chester        FAIR      66  52  59 N9G16     30.09S
Groton         SUNNY     68  52  56 NW10      30.06S
Wilimantic     SUNNY     65  54  67 W9        30.08R

 IN RI

CITY           SKY/WX    TMP DP  RH WIND       PRES   REMARKS
Providence     MOSUNNY   66  53  63 NW12      30.05R
Block Island   SUNNY     65  53  65 W9        30.08R
Westerly       SUNNY     68  53  58 VRB7      30.07S
 IN MA

CITY           SKY/WX    TMP DP  RH WIND       PRES   REMARKS
Boston         SUNNY     66  53  63 W13       30.02R
Worcester      SUNNY     60  51  72 W15       30.05S
Westfield      SUNNY     66  53  63 NW10      30.06S
Provincetown   SUNNY     64  55  72 W13       30.02S
Nantucket      SUNNY     68  55  63 NW15      30.03R
$$

ANZ330-335-338-340-345-350-353-355-281400-
COASTAL MARINE OBSERVATIONS


STATION/POSITION TIME  SKY/WX   TEMP    WIND        PRES    VSBY  WAVE
                                AIR SEA DIR/SP/G                  HT/PER
                 (UTC)          (F)     (DEG/KT/KT) (MB)    (MI)  (FT/S)
NY HARB ENTRANCE 1150            63 68  300/ 16/ 17 1019.0          2/ 3
20 S FIRE ISLAND 1250            65 69  320/ 14/ 17 1019.1          3/ 4
GREAT SOUTH BAY  1230            65 74  340/ 12/ 14   N/A
23 SSW MONTAUK P 1150            64 65              1018.5          1/ 9
15 E BARNEGAT LI 1230               65                N/A           2/ 3
HUDSON CANYON    1150            67 67  340/ 14/ 17 1018.2          3/ 4
KINGS POINT      1230            64 65  360/  8/ 11 1019.6
EXECUTION ROCKS  1245            65     170/  8/ 12   N/A
CENTRAL LI SOUND 1230            62     300/ 10/ 12   N/A           1
EASTERN LI SOUND NOT AVBL
ROBBINS REEF     1224                   320/ 12/ 15 1020.4
$$


>>>>>>>>>>>>>>>>>>>>>>>>>>>> KEY <<<<<<<<<<<<<<<<<<<<<<<<<<<
>                                                          <
>     SKY/WX - Sky Condition/Present Weather               <
>     TMP    - Temperature in Fahrenheit                   <
>     DP     - Dew Point in Fahrenheit                     <
>     RH     - Relative Humidity in Percent                <
>     WIND   - Direction (from) and Speed in MPH           <
>     PRES   - Mean Sea Level Pressure (inches of Hg)      <
>     WCI    - Wind Chill Index                            <
>     VSB    - VISIBILITY IN MILES                         <
>     HX     - HEAT INDEX                                  <
>     TC     - TEMPERATURE IN CELSIUS                      <
>     VRB    - VARIABLE WIND DIRECTION                     <
>                                                          <
>>>>>>>>>>>>>>>>>>>>>>>>>>>> KEY <<<<<<<<<<<<<<<<<<<<<<<<<<<




USA.gov is the U.S. government's official web portal to all federal, state and local government web resources and services.